TimeMST,TemperatureF,Dew PointF,Humidity,Sea Level PressureIn,VisibilityMPH,Wind Direction,Wind SpeedMPH,Gust SpeedMPH,PrecipitationIn,Events,Conditions,WindDirDegrees,DateUTC
12:53 AM,30.0,17.1,59,29.81,10.0,SSE,18.4,27.6,N/A,,Mostly Cloudy,150,2012-12-08 07:53:00
1:53 AM,27.0,17.1,66,29.80,10.0,SSE,16.1,-,N/A,,Scattered Clouds,160,2012-12-08 08:53:00
2:53 AM,24.1,15.1,69,29.80,10.0,SSE,10.4,-,N/A,,Scattered Clouds,160,2012-12-08 09:53:00
3:53 AM,26.6,15.8,64,29.76,10.0,South,13.8,-,N/A,,Partly Cloudy,180,2012-12-08 10:53:00
4:53 AM,26.1,16.0,66,29.78,10.0,South,9.2,-,N/A,,Scattered Clouds,190,2012-12-08 11:53:00
5:53 AM,25.0,16.0,69,29.79,10.0,SW,8.1,-,N/A,,Mostly Cloudy,230,2012-12-08 12:53:00
6:53 AM,25.0,16.0,69,29.76,10.0,South,6.9,-,N/A,,Mostly Cloudy,180,2012-12-08 13:53:00
7:53 AM,28.9,17.1,61,29.73,10.0,SW,9.2,-,N/A,,Mostly Cloudy,220,2012-12-08 14:53:00
8:53 AM,33.1,18.0,54,29.71,10.0,Variable,3.5,-,N/A,,Mostly Cloudy,0,2012-12-08 15:53:00
9:53 AM,37.9,19.0,47,29.70,10.0,Calm,Calm,-,N/A,,Scattered Clouds,0,2012-12-08 16:53:00
10:53 AM,44.1,18.0,35,29.66,10.0,Calm,Calm,-,N/A,,Scattered Clouds,0,2012-12-08 17:53:00
11:53 AM,48.0,16.0,28,29.60,10.0,Calm,Calm,-,N/A,,Scattered Clouds,0,2012-12-08 18:53:00
12:53 PM,50.0,15.1,25,29.58,10.0,Variable,4.6,-,N/A,,Scattered Clouds,0,2012-12-08 19:53:00
1:21 PM,50.0,15.8,26,29.60,10.0,West,32.2,38.0,N/A,,Squalls,280,2012-12-08 20:21:00
1:41 PM,51.8,10.4,19,29.59,10.0,West,21.9,33.4,N/A,,Scattered Clouds,280,2012-12-08 20:41:00
1:53 PM,50.0,10.9,21,29.55,10.0,WNW,24.2,33.4,N/A,,Mostly Cloudy,290,2012-12-08 20:53:00
2:53 PM,51.1,9.0,18,29.58,10.0,WNW,26.5,33.4,N/A,,Mostly Cloudy,290,2012-12-08 21:53:00
3:53 PM,45.0,14.0,29,29.63,10.0,NNW,17.3,-,N/A,,Mostly Cloudy,330,2012-12-08 22:53:00
4:26 PM,35.6,21.2,56,29.67,10.0,ENE,16.1,24.2,N/A,,Mostly Cloudy,70,2012-12-08 23:26:00
4:53 PM,33.1,19.9,59,29.73,10.0,East,12.7,-,N/A,,Mostly Cloudy,90,2012-12-08 23:53:00
5:53 PM,34.0,18.0,52,29.77,10.0,NE,16.1,-,N/A,,Mostly Cloudy,40,2012-12-09 00:53:00
6:53 PM,30.0,14.0,51,29.82,10.0,North,28.8,34.5,N/A,,Overcast,10,2012-12-09 01:53:00
7:09 PM,28.4,15.8,59,29.78,2.0,North,23.0,35.7,0.00,Snow,Light Snow,360,2012-12-09 02:09:00
7:20 PM,26.6,17.6,69,29.78,2.0,North,26.5,34.5,0.00,Snow,Light Snow,10,2012-12-09 02:20:00
7:28 PM,28.4,14.0,55,29.79,5.0,North,21.9,33.4,0.00,Snow,Light Snow,10,2012-12-09 02:28:00
7:53 PM,28.0,12.0,51,29.84,7.0,North,15.0,-,0.00,Snow,Light Snow,10,2012-12-09 02:53:00
8:02 PM,28.4,12.2,51,29.80,0.5,North,19.6,26.5,N/A,Snow,Light Snow,360,2012-12-09 03:02:00
8:06 PM,26.6,17.6,69,29.81,0.5,NNW,16.1,26.5,0.00,Snow,Light Snow,340,2012-12-09 03:06:00
8:21 PM,24.8,17.6,74,29.81,0.5,North,12.7,-,N/A,Snow,Light Snow,360,2012-12-09 03:21:00
8:34 PM,26.6,17.6,69,29.82,5.0,NNW,12.7,-,0.00,Snow,Light Snow,340,2012-12-09 03:34:00
8:44 PM,28.4,14.0,55,29.82,9.0,NNW,13.8,-,0.00,,Overcast,340,2012-12-09 03:44:00
8:53 PM,28.0,12.9,53,29.86,10.0,NNW,15.0,-,0.00,,Overcast,340,2012-12-09 03:53:00
9:23 PM,28.4,10.4,47,29.83,10.0,NNW,11.5,-,N/A,,Overcast,330,2012-12-09 04:23:00
9:53 PM,27.0,6.1,41,29.87,10.0,NW,15.0,21.9,N/A,,Overcast,320,2012-12-09 04:53:00
10:53 PM,27.0,3.0,36,29.85,10.0,North,19.6,25.3,N/A,,Overcast,350,2012-12-09 05:53:00
11:53 PM,25.0,1.9,37,29.86,10.0,North,15.0,-,N/A,,Overcast,350,2012-12-09 06:53:00